Showing default

HISPASAT 30W-6, 43228

Orbit data source: Space-Track

HISPASAT 30W-6, 43228 is a payload satellite owned by Hispasat (ES) in GEO that was launched on Tue, 06 Mar 2018 UTC via an FALCON 9 launch vehicle from the Air Force Eastern Test Range (AFETR). Payload-class satellites include a variety of spacecraft equipped with specific instruments for various scientific and technological missions. These include communications satellites like Starlink; space stations such as the ISS; scientific satellites like the Hubble; Earth observation satellites from companies like Planet Labs, Umbra, and HawkEye 360; GPS; miniature CubeSats for education and research; and military/defense satellites.

Not visible in the next 10 days
Identifier
43228, 2018-023A
Orbit
GEO
Country
Flag of ESES / SPN
Related business
Manufacturer
Maxar SSL
Mission
Operational Commercial Communications
Bus & Motor
LS-1300, R-4D
Mass
6,092 kg wet, 2,634 kg dry
Launch date (UTC)
2018-03-06 (8 years ago)
Launch vehicle
FALCON 9
Launch site
Air Force Eastern Test Range (AFETR)
Object type
Payload
Rocket body
Debris
Shape & HBR
Box + 2 Pan, 13.1 m
Radar Cross Section
120.644 m², Large (>1 m²)

Expand to show TLE details & history
Last TLE update: 2 days ago

TLE from 2 days ago
0 HISPASAT 30W-6
1 43228U 18023A   26171.06481344 -.00000221  00000-0  00000-0 0  9996
2 43228   0.0445  43.1237 0005760  29.8638 188.6152  1.00271051 30436
Epoch: 2026-06-20T01:33Z
TLE epoch observation values (Epoch: 2026-06-20T01:33:19.881Z)
Latitude
-0.04471°
Longitude
-30.01215°
Altitude
35,810.401 km
Speed
3.073 km/s
True Right ascension
17h 26m 25s
True Declination
0° 02' 41"
Sunlit
Object was in daylight at epoch
Visualization orbit readout
Latitude
Unknown
Longitude
Unknown
Altitude
Unknown
Speed
Unknown
Apparent Right ascension
Unknown
Apparent Declination
Unknown
Sunlit
N/A
Visualization observer readout
Local Sidereal Time
21:43:26
Azimuth
Unknown
Elevation
Unknown
Doppler factor
Unknown
Orbital elements
Apogee altitude
35,812.159 km
Perigee altitude
35,763.583 km
Semi-major axis
42,166.008 km
Eccentricity
0.00058
Inclination
0.0445°
RAAN
43.1237°
Arg. of periapsis
29.8638°
True anomaly
188.60532°
Mean anomaly
188.6152°
Eccentric anomaly
188.61026°
Mean motion
0.25067 °/min
Orbital period
1,436.16 mins
BSTAR
0
Loading maneuver chart data...
Computing Atmospheric mass density...
Loading historical data...
Loading historical data...
Loading historical data...
Loading historical data...
Loading historical data...
Loading historical data...
Loading historical data...
Other satellites on launch #23 in the year 2018 (2018-03-06 UTC)

Documentation

Showing up to 5 results
|